PIA735 OPPS-OEJN

Flight info

Callsign PIA735
Flight time 4h 54m
Altitude 36000
Route HANGU G325 PG T385 TAPDO G652 TULBU M628 MIGMA M550 MEVDO Y511 LAKMI M309 VEMEM
Aircraft B77L/H-SDE1E2E3FGHIJ2J3J4J5M1RWXY/LB1D1

Departure

Time 2026-04-21 11:02
Airport Bacha Khan International Airport (OPPS)

Arrival

Time 2026-04-21 15:57
Airport King Abdulaziz International Airport (OEJN)
Time Latitude Longitude Altitude Speed Heading
2026-04-21 09:57 33.99079 71.51911 1209 ft 0 kts 164°
2026-04-21 10:52 33.99100 71.51904 1209 ft 4 kts 164°
2026-04-21 10:52 33.99122 71.51897 1209 ft 2 kts 165°
2026-04-21 10:52 33.99146 71.51888 1208 ft 4 kts 154°
2026-04-21 10:53 33.99169 71.51873 1208 ft 2 kts 148°
2026-04-21 10:53 33.99187 71.51858 1208 ft 4 kts 140°
2026-04-21 10:53 33.99207 71.51836 1207 ft 4 kts 144°
2026-04-21 10:53 33.99209 71.51827 1207 ft 3 kts 200°
2026-04-21 10:54 33.99231 71.51837 1207 ft 4 kts 199°
2026-04-21 10:54 33.99256 71.51848 1207 ft 4 kts 201°
2026-04-21 10:54 33.99263 71.51851 1207 ft 0 kts 202°
2026-04-21 10:57 33.99262 71.51851 1206 ft 0 kts 202°
2026-04-21 10:57 33.99256 71.51848 1207 ft 1 kts 202°
2026-04-21 10:57 33.99217 71.51829 1207 ft 12 kts 202°
2026-04-21 10:58 33.99128 71.51778 1208 ft 13 kts 221°
2026-04-21 10:58 33.99107 71.51677 1209 ft 13 kts 266°
2026-04-21 10:58 33.99103 71.51571 1208 ft 13 kts 267°
2026-04-21 10:58 33.99053 71.51489 1207 ft 13 kts 191°
2026-04-21 10:59 33.98960 71.51494 1209 ft 13 kts 176°
2026-04-21 10:59 33.98866 71.51502 1212 ft 14 kts 176°
2026-04-21 10:59 33.98754 71.51512 1214 ft 17 kts 176°
2026-04-21 10:59 33.98637 71.51522 1217 ft 17 kts 176°
2026-04-21 11:00 33.98520 71.51533 1220 ft 17 kts 176°
2026-04-21 11:00 33.98404 71.51542 1222 ft 17 kts 176°
2026-04-21 11:00 33.98287 71.51546 1224 ft 17 kts 187°
2026-04-21 11:00 33.98188 71.51502 1225 ft 11 kts 178°
2026-04-21 11:01 33.98163 71.51547 1225 ft 4 kts 76°
2026-04-21 11:01 33.98185 71.51562 1225 ft 4 kts
2026-04-21 11:01 33.98235 71.51557 1224 ft 19 kts 355°
2026-04-21 11:02 33.99619 71.51440 1203 ft 174 kts 355°
2026-04-21 11:02 34.00967 71.51300 1491 ft 203 kts 355°
2026-04-21 11:02 34.02379 71.51139 2297 ft 203 kts 355°
2026-04-21 11:02 34.03765 71.51000 3100 ft 202 kts 355°
2026-04-21 11:03 34.05239 71.50894 3499 ft 227 kts 356°
2026-04-21 11:03 34.06859 71.50783 4144 ft 239 kts 356°
2026-04-21 11:03 34.08590 71.50651 4717 ft 255 kts 355°
2026-04-21 11:03 34.10371 71.50535 5453 ft 260 kts
2026-04-21 11:04 34.12156 71.50848 6375 ft 261 kts 16°
2026-04-21 11:04 34.13757 71.51877 7090 ft 269 kts 44°
2026-04-21 11:04 34.14676 71.53857 7813 ft 279 kts 76°
2026-04-21 11:04 34.14700 71.56232 8556 ft 290 kts 104°
2026-04-21 11:05 34.13811 71.58434 9360 ft 298 kts 131°
2026-04-21 11:05 34.12163 71.59965 10115 ft 305 kts 158°
2026-04-21 11:05 34.10085 71.60524 10671 ft 319 kts 181°
2026-04-21 11:05 34.07835 71.59997 10928 ft 344 kts 204°
2026-04-21 11:06 34.05670 71.58529 11170 ft 370 kts 218°
2026-04-21 11:06 34.03640 71.56521 11796 ft 382 kts 223°
2026-04-21 11:06 34.01652 71.54352 12720 ft 388 kts 224°
2026-04-21 11:06 33.99642 71.52143 13684 ft 393 kts 224°
2026-04-21 11:07 33.97590 71.49933 14558 ft 397 kts 223°
2026-04-21 11:07 33.95520 71.47756 15380 ft 401 kts 223°
2026-04-21 11:07 33.93384 71.45551 16238 ft 406 kts 222°
2026-04-21 11:07 33.91220 71.43344 17064 ft 410 kts 222°
2026-04-21 11:08 33.89025 71.41122 17861 ft 415 kts 222°
2026-04-21 11:08 33.86790 71.38870 18571 ft 420 kts 222°
2026-04-21 11:08 33.84562 71.36628 19274 ft 424 kts 222°
2026-04-21 11:08 33.82281 71.34334 20007 ft 428 kts 222°
2026-04-21 11:09 33.79983 71.32023 20708 ft 432 kts 222°
2026-04-21 11:09 33.77658 71.29686 21391 ft 437 kts 222°
2026-04-21 11:09 33.75331 71.27351 22057 ft 441 kts 222°
2026-04-21 11:09 33.72960 71.24970 22714 ft 446 kts 222°
2026-04-21 11:10 33.70561 71.22561 23349 ft 451 kts 222°
2026-04-21 11:10 33.68138 71.20130 23904 ft 455 kts 222°
2026-04-21 11:10 33.65700 71.17687 24486 ft 458 kts 222°
2026-04-21 11:10 33.63280 71.15265 25070 ft 460 kts 222°
2026-04-21 11:11 33.60807 71.12791 25600 ft 464 kts 223°
2026-04-21 11:11 33.58320 71.10304 26140 ft 467 kts 223°
2026-04-21 11:11 33.55809 71.07793 26723 ft 469 kts 223°
2026-04-21 11:11 33.53290 71.05278 27295 ft 472 kts 223°
2026-04-21 11:12 33.50755 71.02748 27815 ft 475 kts 223°
2026-04-21 11:12 33.48161 71.00269 28315 ft 479 kts 219°
2026-04-21 11:12 33.45358 70.98044 28777 ft 485 kts 215°
2026-04-21 11:12 33.42514 70.95941 29246 ft 488 kts 215°
2026-04-21 11:13 33.39612 70.93812 29704 ft 490 kts 215°
2026-04-21 11:13 33.36698 70.91670 30122 ft 491 kts 215°
2026-04-21 11:13 33.33786 70.89518 30606 ft 490 kts 215°
2026-04-21 11:13 33.30891 70.87369 31141 ft 488 kts 216°
2026-04-21 11:14 33.28014 70.85226 31611 ft 486 kts 216°
2026-04-21 11:14 33.25169 70.83104 32085 ft 486 kts 216°
2026-04-21 11:14 33.22303 70.80966 32551 ft 484 kts 216°
2026-04-21 11:14 33.19434 70.78830 33010 ft 483 kts 216°
2026-04-21 11:15 33.16617 70.76735 33423 ft 483 kts 216°
2026-04-21 11:15 33.13759 70.74610 33867 ft 482 kts 216°
2026-04-21 11:15 33.10903 70.72489 34228 ft 481 kts 216°
2026-04-21 11:15 33.08066 70.70384 34535 ft 481 kts 216°
2026-04-21 11:16 33.05223 70.68277 34872 ft 481 kts 216°
2026-04-21 11:16 33.02383 70.66173 35220 ft 480 kts 216°
2026-04-21 11:16 32.99538 70.64067 35556 ft 479 kts 216°
2026-04-21 11:16 32.96729 70.61987 35703 ft 483 kts 216°
2026-04-21 11:17 32.91005 70.57734 35753 ft 483 kts 217°
2026-04-21 11:17 32.85377 70.53436 35751 ft 477 kts 217°
2026-04-21 11:18 32.79823 70.49180 35759 ft 476 kts 217°
2026-04-21 11:18 32.74230 70.44919 35763 ft 477 kts 217°
2026-04-21 11:19 32.68666 70.40693 35768 ft 477 kts 217°
2026-04-21 11:19 32.63061 70.36446 35776 ft 478 kts 216°
2026-04-21 11:20 32.57339 70.32399 35769 ft 480 kts 214°
2026-04-21 11:20 32.51557 70.28431 35785 ft 480 kts 214°
2026-04-21 11:21 32.45788 70.24426 35776 ft 480 kts 215°
2026-04-21 11:21 32.40055 70.20427 35779 ft 481 kts 214°
2026-04-21 11:22 32.34286 70.16386 35779 ft 481 kts 215°
2026-04-21 11:22 32.28560 70.12255 35781 ft 481 kts 216°
2026-04-21 11:23 32.22852 70.08116 35762 ft 480 kts 216°
2026-04-21 11:23 32.17189 70.04031 35780 ft 480 kts 216°
2026-04-21 11:24 32.11478 69.99930 35764 ft 479 kts 216°
2026-04-21 11:24 32.05778 69.95844 35769 ft 478 kts 216°
2026-04-21 11:25 32.00124 69.91796 35773 ft 478 kts 215°
2026-04-21 11:25 31.94424 69.87721 35775 ft 478 kts 215°
2026-04-21 11:26 31.88730 69.83655 35799 ft 478 kts 215°
2026-04-21 11:26 31.83065 69.79616 35781 ft 479 kts 215°
2026-04-21 11:27 31.77348 69.75545 35799 ft 480 kts 215°
2026-04-21 11:27 31.71665 69.71505 35807 ft 480 kts 215°
2026-04-21 11:28 31.65921 69.67429 35808 ft 481 kts 215°
2026-04-21 11:28 31.60178 69.63358 35817 ft 481 kts 215°
2026-04-21 11:29 31.54446 69.59300 35811 ft 481 kts 215°
2026-04-21 11:29 31.48741 69.55269 35817 ft 481 kts 215°
2026-04-21 11:30 31.43008 69.51221 35816 ft 481 kts 215°
2026-04-21 11:30 31.38251 69.47821 35820 ft 478 kts 218°
2026-04-21 11:31 31.32376 69.42037 35819 ft 470 kts 231°
2026-04-21 11:31 31.28710 69.37329 35828 ft 470 kts 232°
2026-04-21 11:32 31.24316 69.31652 35824 ft 470 kts 232°
2026-04-21 11:32 31.19902 69.25999 35830 ft 470 kts 231°
2026-04-21 11:33 31.15507 69.20407 35829 ft 470 kts 231°
2026-04-21 11:33 31.11060 69.14769 35825 ft 471 kts 231°
2026-04-21 11:34 31.06618 69.09143 35834 ft 471 kts 231°
2026-04-21 11:34 31.02199 69.03553 35832 ft 471 kts 231°
2026-04-21 11:35 30.97737 68.97918 35835 ft 471 kts 231°
2026-04-21 11:35 30.93309 68.92332 35840 ft 471 kts 231°
2026-04-21 11:36 30.88860 68.86728 35833 ft 471 kts 231°
2026-04-21 11:36 30.84405 68.81126 35834 ft 471 kts 231°
2026-04-21 11:37 30.79938 68.75517 35831 ft 471 kts 231°
2026-04-21 11:37 30.75492 68.69941 35830 ft 472 kts 231°
2026-04-21 11:38 30.71016 68.64337 35829 ft 472 kts 231°
2026-04-21 11:38 30.66560 68.58766 35831 ft 472 kts 231°
2026-04-21 11:39 30.62073 68.53164 35838 ft 473 kts 231°
2026-04-21 11:39 30.57611 68.47600 35843 ft 473 kts 231°
2026-04-21 11:40 30.53116 68.42004 35846 ft 473 kts 231°
2026-04-21 11:40 30.48641 68.36442 35852 ft 474 kts 231°
2026-04-21 11:41 30.44132 68.30845 35858 ft 474 kts 231°
2026-04-21 11:41 30.39626 68.25260 35866 ft 473 kts 231°
2026-04-21 11:42 30.35140 68.19707 35813 ft 473 kts 230°
2026-04-21 11:42 30.30648 68.14152 35855 ft 471 kts 230°
2026-04-21 11:43 30.26196 68.08660 35859 ft 469 kts 230°
2026-04-21 11:43 30.21703 68.03174 35858 ft 468 kts 230°
2026-04-21 11:44 30.17204 67.97702 35843 ft 469 kts 230°
2026-04-21 11:44 30.12708 67.92231 35822 ft 468 kts 230°
2026-04-21 11:45 30.08246 67.86806 35820 ft 468 kts 230°
2026-04-21 11:45 30.03791 67.81303 35801 ft 467 kts 230°
2026-04-21 11:46 29.99393 67.75836 35784 ft 468 kts 230°
2026-04-21 11:46 29.94948 67.70330 35771 ft 468 kts 230°
2026-04-21 11:47 29.90503 67.64840 35761 ft 468 kts 230°
2026-04-21 11:47 29.86057 67.59359 35765 ft 468 kts 230°
2026-04-21 11:48 29.81608 67.53879 35757 ft 468 kts 230°
2026-04-21 11:48 29.77183 67.48435 35763 ft 468 kts 230°
2026-04-21 11:49 29.72722 67.42955 35774 ft 468 kts 230°
2026-04-21 11:49 29.68298 67.37512 35782 ft 468 kts 230°
2026-04-21 11:50 29.63842 67.32028 35791 ft 468 kts 230°
2026-04-21 11:50 29.59406 67.26576 35797 ft 469 kts 229°
2026-04-21 11:51 29.54944 67.21103 35812 ft 468 kts 229°
2026-04-21 11:51 29.50489 67.15645 35830 ft 468 kts 229°
2026-04-21 11:52 29.46049 67.10212 35842 ft 469 kts 229°
2026-04-21 11:52 29.41573 67.04744 35846 ft 471 kts 229°
2026-04-21 11:53 29.37076 66.99254 35862 ft 471 kts 229°
2026-04-21 11:53 29.32604 66.93808 35869 ft 471 kts 229°
2026-04-21 11:54 29.28110 66.88340 35876 ft 471 kts 229°
2026-04-21 11:54 29.23605 66.82865 35882 ft 471 kts 229°
2026-04-21 11:55 29.19124 66.77428 35887 ft 471 kts 229°
2026-04-21 11:55 29.14615 66.71963 35907 ft 471 kts 229°
2026-04-21 11:56 29.10111 66.66512 35887 ft 471 kts 229°
2026-04-21 11:56 29.05596 66.61054 35908 ft 471 kts 229°
2026-04-21 11:57 29.01119 66.55648 35883 ft 470 kts 229°
2026-04-21 11:57 28.96618 66.50207 35884 ft 470 kts 229°
2026-04-21 11:58 28.92142 66.44800 35881 ft 470 kts 229°
2026-04-21 11:58 28.87639 66.39367 35875 ft 471 kts 229°
2026-04-21 11:59 28.83132 66.33938 35891 ft 471 kts 228°
2026-04-21 11:59 28.78613 66.28501 35888 ft 471 kts 228°
2026-04-21 12:00 28.74099 66.23077 35866 ft 472 kts 228°
2026-04-21 12:00 28.69587 66.17664 35857 ft 473 kts 228°
2026-04-21 12:01 28.65050 66.12229 35864 ft 473 kts 228°
2026-04-21 12:01 28.60510 66.06796 35856 ft 474 kts 228°
2026-04-21 12:02 28.53715 65.98679 35839 ft 474 kts 228°
2026-04-21 12:03 28.49163 65.93250 35809 ft 474 kts 228°
2026-04-21 12:03 28.44609 65.87827 35823 ft 474 kts 228°
2026-04-21 12:04 28.40044 65.82397 35812 ft 474 kts 228°
2026-04-21 12:04 28.35513 65.77014 35797 ft 474 kts 228°
2026-04-21 12:05 28.30947 65.71598 35787 ft 474 kts 228°
2026-04-21 12:05 28.26404 65.66216 35763 ft 474 kts 228°
2026-04-21 12:06 28.21832 65.60806 35760 ft 473 kts 228°
2026-04-21 12:06 28.17268 65.55413 35767 ft 473 kts 228°
2026-04-21 12:07 28.12707 65.50028 35744 ft 473 kts 228°
2026-04-21 12:07 28.08177 65.44688 35761 ft 472 kts 228°
2026-04-21 12:08 28.03625 65.39331 35755 ft 472 kts 228°
2026-04-21 12:08 27.99062 65.33966 35762 ft 471 kts 228°
2026-04-21 12:09 27.94514 65.28623 35763 ft 471 kts 228°
2026-04-21 12:09 27.89994 65.23317 35760 ft 471 kts 228°
2026-04-21 12:10 27.85436 65.17974 35756 ft 471 kts 228°
2026-04-21 12:10 27.80883 65.12644 35758 ft 471 kts 228°
2026-04-21 12:11 27.76354 65.07349 35763 ft 470 kts 228°
2026-04-21 12:11 27.71802 65.02035 35766 ft 470 kts 228°
2026-04-21 12:12 27.67266 64.96745 35770 ft 471 kts 228°
2026-04-21 12:12 27.62700 64.91427 35772 ft 471 kts 228°
2026-04-21 12:13 27.58137 64.86120 35771 ft 471 kts 228°
2026-04-21 12:13 27.53601 64.80851 35780 ft 471 kts 228°
2026-04-21 12:14 27.49034 64.75552 35783 ft 471 kts 228°
2026-04-21 12:14 27.44456 64.70248 35785 ft 471 kts 228°
2026-04-21 12:15 27.39901 64.64976 35789 ft 471 kts 228°
2026-04-21 12:15 27.35315 64.59675 35793 ft 471 kts 228°
2026-04-21 12:16 27.30736 64.54390 35796 ft 471 kts 228°
2026-04-21 12:16 27.26183 64.49141 35801 ft 472 kts 228°
2026-04-21 12:17 27.21595 64.43858 35799 ft 472 kts 228°
2026-04-21 12:17 27.17021 64.38598 35802 ft 472 kts 228°
2026-04-21 12:18 27.12417 64.33309 35799 ft 473 kts 228°
2026-04-21 12:18 27.07808 64.28021 35800 ft 473 kts 228°
2026-04-21 12:19 27.03226 64.22770 35801 ft 473 kts 228°
2026-04-21 12:19 26.98616 64.17493 35803 ft 473 kts 228°
2026-04-21 12:20 26.94001 64.12223 35800 ft 473 kts 227°
2026-04-21 12:20 26.89360 64.06977 35803 ft 474 kts 227°
2026-04-21 12:21 26.84738 64.01769 35800 ft 474 kts 227°
2026-04-21 12:21 26.80077 63.96519 35798 ft 474 kts 227°
2026-04-21 12:22 26.76209 63.92162 35790 ft 474 kts 227°
2026-04-21 12:22 26.71553 63.86923 35792 ft 474 kts 227°
2026-04-21 12:23 26.66894 63.81688 35797 ft 474 kts 227°
2026-04-21 12:23 26.62266 63.76492 35796 ft 474 kts 227°
2026-04-21 12:24 26.57609 63.71272 35794 ft 474 kts 227°
2026-04-21 12:24 26.52949 63.66053 35793 ft 474 kts 227°
2026-04-21 12:25 26.48315 63.60872 35799 ft 474 kts 227°
2026-04-21 12:25 26.43646 63.55657 35792 ft 475 kts 227°
2026-04-21 12:26 26.38961 63.50430 35795 ft 475 kts 227°
2026-04-21 12:26 26.34274 63.45207 35791 ft 476 kts 227°
2026-04-21 12:27 26.29620 63.40028 35791 ft 476 kts 227°
2026-04-21 12:27 26.24924 63.34807 35791 ft 476 kts 227°
2026-04-21 12:28 26.20230 63.29595 35796 ft 477 kts 227°
2026-04-21 12:28 26.15516 63.24368 35787 ft 477 kts 227°
2026-04-21 12:29 26.10836 63.19184 35782 ft 477 kts 227°
2026-04-21 12:29 26.06120 63.13965 35790 ft 477 kts 227°
2026-04-21 12:30 26.01402 63.08750 35775 ft 477 kts 227°
2026-04-21 12:30 25.96708 63.03564 35781 ft 477 kts 227°
2026-04-21 12:31 25.92001 62.98355 35777 ft 477 kts 227°
2026-04-21 12:31 25.87319 62.93177 35778 ft 477 kts 227°
2026-04-21 12:32 25.82603 62.87967 35773 ft 478 kts 227°
2026-04-21 12:32 25.77877 62.82755 35774 ft 478 kts 227°
2026-04-21 12:33 25.73177 62.77577 35778 ft 478 kts 227°
2026-04-21 12:33 25.68438 62.72362 35787 ft 478 kts 227°
2026-04-21 12:34 25.63728 62.67186 35784 ft 479 kts 227°
2026-04-21 12:34 25.58992 62.61986 35789 ft 479 kts 227°
2026-04-21 12:35 25.54247 62.56783 35793 ft 479 kts 227°
2026-04-21 12:35 25.49509 62.51594 35792 ft 479 kts 227°
2026-04-21 12:36 25.44771 62.46411 35800 ft 479 kts 227°
2026-04-21 12:36 25.40059 62.41263 35799 ft 479 kts 227°
2026-04-21 12:37 25.35304 62.36073 35800 ft 479 kts 227°
2026-04-21 12:37 25.30540 62.30881 35803 ft 479 kts 227°
2026-04-21 12:38 25.25813 62.25734 35805 ft 479 kts 227°
2026-04-21 12:38 25.21062 62.20566 35809 ft 479 kts 227°
2026-04-21 12:39 25.16292 62.15384 35812 ft 479 kts 227°
2026-04-21 12:39 25.11559 62.10249 35809 ft 479 kts 227°
2026-04-21 12:40 25.06786 62.05075 35811 ft 479 kts 227°
2026-04-21 12:40 25.02048 61.99947 35811 ft 479 kts 227°
2026-04-21 12:41 24.97285 61.94797 35813 ft 479 kts 227°
2026-04-21 12:41 24.92518 61.89647 35809 ft 479 kts 227°
2026-04-21 12:42 24.87746 61.84499 35814 ft 479 kts 227°
2026-04-21 12:42 24.83007 61.79392 35814 ft 480 kts 227°
2026-04-21 12:43 24.78230 61.74249 35810 ft 480 kts 227°
2026-04-21 12:43 24.73442 61.69102 35810 ft 480 kts 227°
2026-04-21 12:44 24.68682 61.63990 35811 ft 480 kts 227°
2026-04-21 12:44 24.63916 61.58876 35811 ft 480 kts 227°
2026-04-21 12:45 24.59119 61.53735 35815 ft 481 kts 227°
2026-04-21 12:45 24.54315 61.48593 35814 ft 481 kts 227°
2026-04-21 12:46 24.49664 61.43618 35813 ft 481 kts 227°
2026-04-21 12:46 24.44844 61.38470 35813 ft 482 kts 227°
2026-04-21 12:47 24.40560 61.32890 35810 ft 476 kts 240°
2026-04-21 12:47 24.37659 61.26456 35811 ft 471 kts 252°
2026-04-21 12:48 24.35512 61.19651 35816 ft 472 kts 253°
2026-04-21 12:48 24.33371 61.12840 35811 ft 472 kts 253°
2026-04-21 12:49 24.31186 61.06049 35811 ft 473 kts 253°
2026-04-21 12:49 24.28989 60.99295 35807 ft 473 kts 253°
2026-04-21 12:50 24.26774 60.92496 35810 ft 473 kts 253°
2026-04-21 12:50 24.24556 60.85692 35811 ft 474 kts 253°
2026-04-21 12:51 24.22336 60.78889 35809 ft 474 kts 253°
2026-04-21 12:51 24.20123 60.72126 35806 ft 474 kts 253°
2026-04-21 12:52 24.17884 60.65321 35803 ft 475 kts 253°
2026-04-21 12:52 24.15637 60.58505 35806 ft 475 kts 253°
2026-04-21 12:53 24.13401 60.51729 35803 ft 475 kts 253°
2026-04-21 12:53 24.11144 60.44897 35803 ft 476 kts 253°
2026-04-21 12:54 24.08889 60.38083 35800 ft 476 kts 253°
2026-04-21 12:54 24.06642 60.31306 35803 ft 476 kts 253°
2026-04-21 12:55 24.04371 60.24468 35799 ft 476 kts 253°
2026-04-21 12:55 24.02115 60.17687 35795 ft 476 kts 253°
2026-04-21 12:56 23.99842 60.10865 35791 ft 477 kts 253°
2026-04-21 12:56 23.97570 60.04055 35795 ft 477 kts 253°
2026-04-21 12:57 23.95289 59.97232 35788 ft 477 kts 253°
2026-04-21 12:57 23.93017 59.90449 35791 ft 477 kts 253°
2026-04-21 12:58 23.90730 59.83629 35784 ft 477 kts 253°
2026-04-21 12:58 23.88435 59.76800 35784 ft 477 kts 253°
2026-04-21 12:59 23.86157 59.70031 35787 ft 477 kts 253°
2026-04-21 12:59 23.83858 59.63208 35785 ft 477 kts 253°
2026-04-21 13:00 23.81559 59.56396 35784 ft 477 kts 253°
2026-04-21 13:00 23.79273 59.49646 35786 ft 477 kts 253°
2026-04-21 13:01 23.76862 59.42873 35777 ft 477 kts 252°
2026-04-21 13:01 23.74425 59.36180 35785 ft 476 kts 252°
2026-04-21 13:02 23.71987 59.29460 35794 ft 475 kts 252°
2026-04-21 13:02 23.68348 59.19393 35784 ft 475 kts 252°
2026-04-21 13:03 23.65942 59.12742 35780 ft 474 kts 252°
2026-04-21 13:03 23.63517 59.06052 35785 ft 473 kts 252°
2026-04-21 13:04 23.61096 58.99383 35781 ft 473 kts 252°
2026-04-21 13:04 23.58670 58.92713 35780 ft 472 kts 252°
2026-04-21 13:05 23.56258 58.86089 35779 ft 472 kts 252°
2026-04-21 13:05 23.53832 58.79437 35780 ft 471 kts 252°
2026-04-21 13:06 23.51421 58.72838 35785 ft 471 kts 252°
2026-04-21 13:06 23.48990 58.66193 35785 ft 470 kts 252°
2026-04-21 13:07 23.46589 58.59640 35775 ft 470 kts 252°
2026-04-21 13:07 23.44164 58.53026 35776 ft 470 kts 252°
2026-04-21 13:08 23.41747 58.46451 35779 ft 469 kts 252°
2026-04-21 13:08 23.39715 58.40963 35781 ft 469 kts 252°
2026-04-21 13:09 23.36796 58.33330 35788 ft 468 kts 251°
2026-04-21 13:09 23.34722 58.27910 35820 ft 466 kts 251°
2026-04-21 13:10 23.32218 58.21383 35803 ft 466 kts 251°
2026-04-21 13:10 23.29721 58.14861 35813 ft 466 kts 251°
2026-04-21 13:11 23.27225 58.08342 35816 ft 466 kts 251°
2026-04-21 13:11 23.24738 58.01862 35823 ft 466 kts 251°
2026-04-21 13:12 23.22381 57.95303 35835 ft 464 kts 253°
2026-04-21 13:12 23.20161 57.88718 35843 ft 463 kts 254°
2026-04-21 13:13 23.17941 57.82188 35848 ft 463 kts 253°
2026-04-21 13:13 23.15681 57.75631 35860 ft 463 kts 253°
2026-04-21 13:14 23.13410 57.69071 35883 ft 463 kts 253°
2026-04-21 13:14 23.11137 57.62512 35885 ft 463 kts 253°
2026-04-21 13:15 23.08872 57.55989 35886 ft 462 kts 253°
2026-04-21 13:15 23.06601 57.49454 35893 ft 463 kts 253°
2026-04-21 13:16 23.04323 57.42911 35880 ft 462 kts 253°
2026-04-21 13:16 23.02064 57.36422 35890 ft 460 kts 254°
2026-04-21 13:17 23.00576 57.29727 35891 ft 453 kts 266°
2026-04-21 13:17 23.00209 57.22994 35896 ft 448 kts 274°
2026-04-21 13:18 23.00425 57.16228 35882 ft 448 kts 275°
2026-04-21 13:18 23.00628 57.09470 35868 ft 446 kts 274°
2026-04-21 13:19 23.00791 57.02750 35872 ft 447 kts 274°
2026-04-21 13:19 23.00951 56.95980 35867 ft 448 kts 274°
2026-04-21 13:20 23.01115 56.89249 35857 ft 449 kts 274°
2026-04-21 13:20 23.01279 56.82464 35845 ft 449 kts 274°
2026-04-21 13:21 23.01438 56.75695 35837 ft 448 kts 274°
2026-04-21 13:21 23.01594 56.68927 35826 ft 447 kts 274°
2026-04-21 13:22 23.01747 56.62209 35813 ft 446 kts 274°
2026-04-21 13:22 23.01897 56.55474 35808 ft 445 kts 274°
2026-04-21 13:23 23.02043 56.48795 35799 ft 444 kts 274°
2026-04-21 13:23 23.02187 56.42085 35796 ft 443 kts 274°
2026-04-21 13:24 23.02328 56.35392 35788 ft 443 kts 274°
2026-04-21 13:24 23.02462 56.28744 35784 ft 442 kts 274°
2026-04-21 13:25 23.02583 56.22048 35779 ft 442 kts 274°
2026-04-21 13:25 23.02701 56.15368 35773 ft 442 kts 273°
2026-04-21 13:26 23.02817 56.08689 35767 ft 442 kts 273°
2026-04-21 13:26 23.02930 56.02059 35767 ft 442 kts 273°
2026-04-21 13:27 23.03042 55.95380 35759 ft 442 kts 273°
2026-04-21 13:27 23.03154 55.88739 35755 ft 441 kts 273°
2026-04-21 13:28 23.03282 55.82055 35752 ft 441 kts 273°
2026-04-21 13:28 23.03409 55.75380 35750 ft 441 kts 273°
2026-04-21 13:29 23.03531 55.68710 35750 ft 441 kts 273°
2026-04-21 13:29 23.03648 55.62080 35744 ft 442 kts 273°
2026-04-21 13:30 23.03765 55.55399 35742 ft 442 kts 273°
2026-04-21 13:30 23.03867 55.48723 35741 ft 442 kts 273°
2026-04-21 13:31 23.03949 55.42094 35738 ft 442 kts 273°
2026-04-21 13:31 23.04033 55.35407 35737 ft 442 kts 273°
2026-04-21 13:32 23.03743 55.28777 35740 ft 444 kts 266°
2026-04-21 13:32 23.02517 55.22150 35732 ft 447 kts 261°
2026-04-21 13:33 23.01187 55.15545 35733 ft 446 kts 262°
2026-04-21 13:33 22.99903 55.08977 35728 ft 446 kts 262°
2026-04-21 13:34 22.98615 55.02390 35732 ft 446 kts 262°
2026-04-21 13:34 22.97319 54.95798 35725 ft 445 kts 262°
2026-04-21 13:35 22.96027 54.89260 35732 ft 445 kts 262°
2026-04-21 13:35 22.94728 54.82702 35730 ft 444 kts 262°
2026-04-21 13:36 22.93428 54.76149 35730 ft 443 kts 262°
2026-04-21 13:36 22.92129 54.69618 35729 ft 442 kts 262°
2026-04-21 13:37 22.90834 54.63127 35728 ft 442 kts 262°
2026-04-21 13:37 22.89532 54.56608 35727 ft 441 kts 262°
2026-04-21 13:38 22.88239 54.50151 35738 ft 440 kts 262°
2026-04-21 13:38 22.86937 54.43666 35728 ft 439 kts 262°
2026-04-21 13:39 22.85634 54.37185 35740 ft 438 kts 262°
2026-04-21 13:39 22.84338 54.30756 35745 ft 438 kts 262°
2026-04-21 13:40 22.83035 54.24303 35721 ft 438 kts 262°
2026-04-21 13:40 22.81741 54.17909 35725 ft 437 kts 262°
2026-04-21 13:41 22.80424 54.11414 35728 ft 437 kts 262°
2026-04-21 13:41 22.79121 54.05005 35724 ft 437 kts 262°
2026-04-21 13:42 22.78220 53.98532 35734 ft 432 kts 270°
2026-04-21 13:42 22.78198 53.92101 35709 ft 428 kts 275°
2026-04-21 13:43 22.78438 53.85641 35738 ft 428 kts 275°
2026-04-21 13:43 22.78669 53.79183 35741 ft 429 kts 275°
2026-04-21 13:44 22.78885 53.72742 35736 ft 430 kts 275°
2026-04-21 13:44 22.79094 53.66234 35720 ft 430 kts 275°
2026-04-21 13:45 22.79296 53.59786 35733 ft 430 kts 275°
2026-04-21 13:45 22.79500 53.53283 35737 ft 430 kts 275°
2026-04-21 13:46 22.79699 53.46835 35726 ft 430 kts 275°
2026-04-21 13:46 22.79896 53.40341 35725 ft 429 kts 275°
2026-04-21 13:47 22.80091 53.33878 35727 ft 428 kts 275°
2026-04-21 13:47 22.80281 53.27461 35739 ft 428 kts 275°
2026-04-21 13:48 22.80469 53.21012 35734 ft 427 kts 275°
2026-04-21 13:48 22.80655 53.14568 35738 ft 427 kts 275°
2026-04-21 13:49 22.80837 53.08169 35738 ft 426 kts 275°
2026-04-21 13:49 22.81018 53.01726 35942 ft 428 kts 275°
2026-04-21 13:50 22.81107 52.98503 36414 ft 424 kts 275°
2026-04-21 13:50 22.81194 52.95324 36972 ft 419 kts 275°
2026-04-21 13:50 22.81278 52.92182 37505 ft 414 kts 275°
2026-04-21 13:50 22.81361 52.89109 37758 ft 413 kts 275°
2026-04-21 13:51 22.81531 52.82861 37724 ft 415 kts 275°
2026-04-21 13:51 22.81697 52.76630 37727 ft 412 kts 275°
2026-04-21 13:52 22.81858 52.70422 37726 ft 410 kts 275°
2026-04-21 13:52 22.82018 52.64239 37730 ft 409 kts 275°
2026-04-21 13:53 22.82174 52.58070 37727 ft 409 kts 275°
2026-04-21 13:53 22.82328 52.51934 37730 ft 409 kts 275°
2026-04-21 13:54 22.82475 52.45775 37728 ft 410 kts 275°
2026-04-21 13:54 22.82606 52.39567 37730 ft 410 kts 275°
2026-04-21 13:55 22.82732 52.33407 37725 ft 411 kts 275°
2026-04-21 13:55 22.82858 52.27203 37729 ft 411 kts 275°
2026-04-21 13:56 22.82962 52.22046 37725 ft 412 kts 275°
2026-04-21 13:56 22.83086 52.15830 37729 ft 412 kts 275°
2026-04-21 13:57 22.83206 52.09636 37732 ft 412 kts 275°
2026-04-21 13:57 22.83325 52.03417 37727 ft 412 kts 275°
2026-04-21 13:58 22.83441 51.97197 37733 ft 412 kts 275°
2026-04-21 13:58 22.83555 51.90973 37735 ft 412 kts 275°
2026-04-21 13:59 22.83665 51.84793 37733 ft 412 kts 275°
2026-04-21 13:59 22.83774 51.78567 37739 ft 412 kts 274°
2026-04-21 14:00 22.83881 51.72354 37742 ft 412 kts 274°
2026-04-21 14:00 22.83984 51.66172 37740 ft 411 kts 274°
2026-04-21 14:01 22.84086 51.59970 37739 ft 411 kts 274°
2026-04-21 14:01 22.84186 51.53773 37743 ft 410 kts 274°
2026-04-21 14:02 22.84193 51.47579 37745 ft 412 kts 270°
2026-04-21 14:03 22.82918 51.38342 37741 ft 416 kts 264°
2026-04-21 14:03 22.81815 51.32169 37742 ft 416 kts 264°
2026-04-21 14:04 22.80736 51.26052 37745 ft 415 kts 264°
2026-04-21 14:04 22.79655 51.19894 37743 ft 415 kts 264°
2026-04-21 14:05 22.78574 51.13754 37741 ft 415 kts 264°
2026-04-21 14:05 22.77478 51.07596 37744 ft 415 kts 264°
2026-04-21 14:06 22.76379 51.01491 37745 ft 415 kts 264°
2026-04-21 14:06 22.75272 50.95353 37747 ft 415 kts 264°
2026-04-21 14:07 22.74162 50.89203 37740 ft 415 kts 264°
2026-04-21 14:07 22.73058 50.83096 37742 ft 415 kts 264°
2026-04-21 14:08 22.71944 50.76948 37737 ft 415 kts 264°
2026-04-21 14:08 22.70827 50.70797 37737 ft 415 kts 264°
2026-04-21 14:09 22.69784 50.64694 37742 ft 413 kts 267°
2026-04-21 14:09 22.69532 50.58511 37740 ft 409 kts 275°
2026-04-21 14:10 22.69740 50.52345 37750 ft 409 kts 275°
2026-04-21 14:10 22.69932 50.46204 37740 ft 410 kts 275°
2026-04-21 14:11 22.70115 50.40027 37742 ft 410 kts 275°
2026-04-21 14:11 22.70294 50.33835 37747 ft 411 kts 275°
2026-04-21 14:12 22.70468 50.27685 37744 ft 411 kts 274°
2026-04-21 14:12 22.70640 50.21495 37746 ft 411 kts 274°
2026-04-21 14:13 22.70810 50.15342 37745 ft 410 kts 274°
2026-04-21 14:13 22.70978 50.09153 37744 ft 410 kts 274°
2026-04-21 14:14 22.71143 50.02967 37748 ft 410 kts 274°
2026-04-21 14:14 22.71305 49.96834 37745 ft 409 kts 274°
2026-04-21 14:15 22.71466 49.90653 37742 ft 409 kts 274°
2026-04-21 14:15 22.71624 49.84513 37743 ft 409 kts 274°
2026-04-21 14:16 22.71779 49.78354 37744 ft 409 kts 274°
2026-04-21 14:16 22.71933 49.72185 37741 ft 409 kts 274°
2026-04-21 14:17 22.72083 49.66060 37740 ft 409 kts 274°
2026-04-21 14:17 22.72232 49.59892 37739 ft 409 kts 274°
2026-04-21 14:18 22.72378 49.53737 37737 ft 409 kts 274°
2026-04-21 14:18 22.72521 49.47617 37736 ft 409 kts 274°
2026-04-21 14:19 22.72662 49.41452 37736 ft 409 kts 274°
2026-04-21 14:19 22.72801 49.35288 37739 ft 409 kts 274°
2026-04-21 14:20 22.72938 49.29131 37738 ft 409 kts 274°
2026-04-21 14:20 22.73072 49.22977 37739 ft 409 kts 274°
2026-04-21 14:21 22.73204 49.16856 37732 ft 409 kts 274°
2026-04-21 14:21 22.73333 49.10700 37736 ft 408 kts 274°
2026-04-21 14:22 22.73460 49.04540 37739 ft 408 kts 274°
2026-04-21 14:22 22.73585 48.98385 37732 ft 408 kts 274°
2026-04-21 14:23 22.73707 48.92265 37736 ft 408 kts 274°
2026-04-21 14:23 22.73827 48.86105 37738 ft 408 kts 274°
2026-04-21 14:24 22.73945 48.79958 37731 ft 407 kts 274°
2026-04-21 14:24 22.74059 48.73858 37738 ft 407 kts 274°
2026-04-21 14:25 22.74172 48.67714 37736 ft 407 kts 274°
2026-04-21 14:25 22.74283 48.61566 37736 ft 407 kts 274°
2026-04-21 14:26 22.74390 48.55471 37736 ft 407 kts 274°
2026-04-21 14:26 22.74496 48.49328 37735 ft 407 kts 274°
2026-04-21 14:27 22.74599 48.43200 37735 ft 406 kts 274°
2026-04-21 14:27 22.74700 48.37076 37736 ft 406 kts 273°
2026-04-21 14:28 22.74798 48.30986 37731 ft 406 kts 273°
2026-04-21 14:28 22.74894 48.24865 37730 ft 406 kts 273°
2026-04-21 14:29 22.74988 48.18740 37736 ft 406 kts 273°
2026-04-21 14:29 22.75064 48.13652 37733 ft 406 kts 273°
2026-04-21 14:30 22.75247 48.00972 37733 ft 405 kts 273°
2026-04-21 14:31 22.75331 47.94873 37734 ft 405 kts 273°
2026-04-21 14:31 22.75414 47.88779 37735 ft 404 kts 273°
2026-04-21 14:32 22.75493 47.82715 37737 ft 404 kts 273°
2026-04-21 14:32 22.75570 47.76615 37734 ft 404 kts 272°
2026-04-21 14:33 22.75645 47.70524 37737 ft 404 kts 272°
2026-04-21 14:33 22.75718 47.64463 37735 ft 404 kts 272°
2026-04-21 14:34 22.75788 47.58357 37737 ft 404 kts 272°
2026-04-21 14:34 22.75857 47.52258 37740 ft 404 kts 272°
2026-04-21 14:35 22.75922 47.46195 37742 ft 404 kts 272°
2026-04-21 14:35 22.75986 47.40093 37740 ft 404 kts 272°
2026-04-21 14:36 22.76047 47.34027 37738 ft 404 kts 272°
2026-04-21 14:36 22.76106 47.27927 37737 ft 404 kts 272°
2026-04-21 14:37 22.76163 47.21821 37741 ft 405 kts 272°
2026-04-21 14:37 22.76333 47.15730 37742 ft 404 kts 275°
2026-04-21 14:38 22.76819 47.09691 37743 ft 404 kts 276°
2026-04-21 14:38 22.77320 47.03614 37738 ft 404 kts 276°
2026-04-21 14:39 22.77810 46.97529 37740 ft 404 kts 276°
2026-04-21 14:39 22.78288 46.91495 37738 ft 404 kts 276°
2026-04-21 14:40 22.78766 46.85415 37741 ft 404 kts 275°
2026-04-21 14:40 22.79239 46.79358 37742 ft 404 kts 275°
2026-04-21 14:41 22.79714 46.73258 37745 ft 404 kts 275°
2026-04-21 14:41 22.80182 46.67213 37749 ft 404 kts 275°
2026-04-21 14:42 22.80651 46.61131 37755 ft 404 kts 275°
2026-04-21 14:42 22.81114 46.55095 37757 ft 404 kts 275°
2026-04-21 14:43 22.81578 46.49021 37757 ft 404 kts 275°
2026-04-21 14:43 22.82040 46.42939 37761 ft 404 kts 275°
2026-04-21 14:44 22.82497 46.36876 37760 ft 404 kts 275°
2026-04-21 14:44 22.82945 46.30833 37756 ft 403 kts 275°
2026-04-21 14:45 22.83391 46.24755 37764 ft 404 kts 275°
2026-04-21 14:45 22.83834 46.18711 37756 ft 404 kts 275°
2026-04-21 14:46 22.84276 46.12637 37748 ft 404 kts 275°
2026-04-21 14:46 22.84719 46.06533 37736 ft 405 kts 275°
2026-04-21 14:47 22.85156 46.00485 37747 ft 405 kts 275°
2026-04-21 14:47 22.85585 45.94366 37743 ft 405 kts 274°
2026-04-21 14:48 22.85515 45.88241 37738 ft 406 kts 270°
2026-04-21 14:48 22.85353 45.82152 37739 ft 406 kts 270°
2026-04-21 14:49 22.85198 45.76018 37737 ft 406 kts 270°
2026-04-21 14:49 22.85047 45.69890 37737 ft 406 kts 270°
2026-04-21 14:50 22.84920 45.64803 37740 ft 405 kts 270°
2026-04-21 14:50 22.84742 45.57697 37739 ft 405 kts 270°
2026-04-21 14:51 22.84586 45.51620 37741 ft 405 kts 270°
2026-04-21 14:51 22.84428 45.45513 37738 ft 405 kts 270°
2026-04-21 14:52 22.84267 45.39399 37748 ft 405 kts 270°
2026-04-21 14:52 22.84103 45.33274 37735 ft 405 kts 270°
2026-04-21 14:53 22.83938 45.27197 37742 ft 405 kts 270°
2026-04-21 14:53 22.83770 45.21084 37740 ft 405 kts 270°
2026-04-21 14:54 22.83601 45.15010 37762 ft 404 kts 270°
2026-04-21 14:54 22.83429 45.08917 37750 ft 404 kts 270°
2026-04-21 14:55 22.83254 45.02814 37758 ft 404 kts 270°
2026-04-21 14:55 22.83078 44.96764 37757 ft 403 kts 270°
2026-04-21 14:56 22.82899 44.90685 37759 ft 403 kts 270°
2026-04-21 14:56 22.82718 44.84617 37771 ft 402 kts 269°
2026-04-21 14:57 22.82535 44.78536 37771 ft 402 kts 269°
2026-04-21 14:57 22.82351 44.72506 37772 ft 402 kts 269°
2026-04-21 14:58 22.82163 44.66437 37771 ft 402 kts 269°
2026-04-21 14:58 22.81973 44.60352 37775 ft 403 kts 269°
2026-04-21 14:59 22.81782 44.54308 37775 ft 403 kts 269°
2026-04-21 14:59 22.81587 44.48225 37776 ft 403 kts 269°
2026-04-21 15:00 22.81389 44.42137 37775 ft 404 kts 269°
2026-04-21 15:00 22.81190 44.36078 37778 ft 404 kts 269°
2026-04-21 15:01 22.80988 44.29975 37776 ft 404 kts 269°
2026-04-21 15:01 22.80784 44.23921 37783 ft 404 kts 269°
2026-04-21 15:02 22.80577 44.17827 37782 ft 404 kts 269°
2026-04-21 15:02 22.80368 44.11735 37776 ft 404 kts 269°
2026-04-21 15:03 22.80157 44.05651 37779 ft 403 kts 268°
2026-04-21 15:03 22.79943 43.99569 37779 ft 403 kts 269°
2026-04-21 15:04 22.79729 43.93524 37792 ft 403 kts 269°
2026-04-21 15:04 22.79511 43.87456 37795 ft 402 kts 269°
2026-04-21 15:05 22.79291 43.81384 37795 ft 402 kts 269°
2026-04-21 15:05 22.78959 43.72345 37797 ft 402 kts 269°
2026-04-21 15:06 22.78733 43.66275 37806 ft 402 kts 269°
2026-04-21 15:06 22.78507 43.60255 37813 ft 402 kts 269°
2026-04-21 15:07 22.78278 43.54200 37813 ft 402 kts 269°
2026-04-21 15:07 22.78047 43.48172 37819 ft 402 kts 269°
2026-04-21 15:08 22.77812 43.42111 37821 ft 402 kts 269°
2026-04-21 15:08 22.77615 43.37074 37824 ft 402 kts 269°
2026-04-21 15:09 22.77376 43.31008 37822 ft 402 kts 269°
2026-04-21 15:09 22.77096 43.23962 37822 ft 402 kts 269°
2026-04-21 15:10 22.76894 43.18919 37824 ft 402 kts 269°
2026-04-21 15:10 22.76607 43.11857 37825 ft 402 kts 269°
2026-04-21 15:11 22.76401 43.06812 37825 ft 402 kts 268°
2026-04-21 15:11 22.76150 43.00749 37822 ft 402 kts 269°
2026-04-21 15:12 22.75898 42.94694 37827 ft 402 kts 269°
2026-04-21 15:12 22.75645 42.88684 37828 ft 401 kts 268°
2026-04-21 15:13 22.75389 42.82629 37831 ft 401 kts 268°
2026-04-21 15:13 22.75130 42.76580 37828 ft 401 kts 268°
2026-04-21 15:14 22.74870 42.70567 37834 ft 401 kts 268°
2026-04-21 15:14 22.74607 42.64520 37836 ft 401 kts 268°
2026-04-21 15:15 22.74341 42.58471 37834 ft 402 kts 268°
2026-04-21 15:15 22.74075 42.52465 37843 ft 402 kts 268°
2026-04-21 15:16 22.73804 42.46407 37848 ft 402 kts 268°
2026-04-21 15:16 22.73531 42.40345 37859 ft 402 kts 268°
2026-04-21 15:17 22.73257 42.34311 37854 ft 403 kts 268°
2026-04-21 15:17 22.72979 42.28241 37857 ft 403 kts 268°
2026-04-21 15:18 22.72699 42.22183 37860 ft 402 kts 268°
2026-04-21 15:18 22.72417 42.16128 37863 ft 402 kts 268°
2026-04-21 15:19 22.72135 42.10111 37870 ft 402 kts 268°
2026-04-21 15:19 22.71848 42.04049 37874 ft 402 kts 268°
2026-04-21 15:20 22.71560 41.98018 37880 ft 402 kts 268°
2026-04-21 15:20 22.71269 41.91967 37879 ft 402 kts 268°
2026-04-21 15:21 22.70976 41.85909 37887 ft 402 kts 268°
2026-04-21 15:21 22.70680 41.79854 37889 ft 402 kts 268°
2026-04-21 15:22 22.70384 41.73838 37890 ft 402 kts 268°
2026-04-21 15:22 22.70083 41.67770 37894 ft 402 kts 268°
2026-04-21 15:23 22.69782 41.61748 37897 ft 403 kts 268°
2026-04-21 15:23 22.69476 41.55675 37895 ft 403 kts 268°
2026-04-21 15:24 22.69168 41.49603 37902 ft 403 kts 268°
2026-04-21 15:24 22.68858 41.43530 37904 ft 403 kts 268°
2026-04-21 15:25 22.68547 41.37491 37915 ft 403 kts 268°
2026-04-21 15:25 22.68232 41.31414 37911 ft 404 kts 268°
2026-04-21 15:26 22.67917 41.25373 37916 ft 404 kts 268°
2026-04-21 15:26 22.67597 41.19290 37918 ft 404 kts 268°
2026-04-21 15:27 22.66919 41.13246 37926 ft 406 kts 261°
2026-04-21 15:27 22.65532 41.07305 37923 ft 408 kts 256°
2026-04-21 15:28 22.63497 41.01588 37924 ft 410 kts 252°
2026-04-21 15:28 22.61063 40.95983 37932 ft 415 kts 245°
2026-04-21 15:29 22.57841 40.90756 37931 ft 419 kts 239°
2026-04-21 15:29 22.54054 40.85922 37935 ft 422 kts 236°
2026-04-21 15:30 22.50296 40.81145 37747 ft 416 kts 237°
2026-04-21 15:30 22.48434 40.78737 37347 ft 418 kts 237°
2026-04-21 15:30 22.46557 40.76305 36859 ft 421 kts 237°
2026-04-21 15:31 22.42811 40.71473 36822 ft 418 kts 237°
2026-04-21 15:31 22.39053 40.66637 36476 ft 428 kts 237°
2026-04-21 15:32 22.37140 40.64181 36096 ft 424 kts 236°
2026-04-21 15:32 22.35245 40.61759 35721 ft 418 kts 236°
2026-04-21 15:32 22.33377 40.59375 35371 ft 412 kts 236°
2026-04-21 15:32 22.31553 40.57043 35031 ft 410 kts 236°
2026-04-21 15:33 22.29719 40.54696 34604 ft 411 kts 236°
2026-04-21 15:33 22.27852 40.52298 33963 ft 424 kts 236°
2026-04-21 15:33 22.25919 40.49810 32944 ft 439 kts 236°
2026-04-21 15:33 22.23943 40.47276 31887 ft 444 kts 235°
2026-04-21 15:34 22.21940 40.44717 30922 ft 448 kts 234°
2026-04-21 15:34 22.19908 40.42128 30117 ft 450 kts 234°
2026-04-21 15:34 22.17885 40.39555 29188 ft 448 kts 234°
2026-04-21 15:34 22.15902 40.37033 28364 ft 443 kts 233°
2026-04-21 15:35 22.13893 40.34479 27574 ft 439 kts 233°
2026-04-21 15:35 22.11926 40.31977 26814 ft 435 kts 233°
2026-04-21 15:35 22.10003 40.29528 26086 ft 431 kts 233°
2026-04-21 15:35 22.08074 40.27072 25364 ft 428 kts 233°
2026-04-21 15:36 22.06148 40.24620 24634 ft 427 kts 233°
2026-04-21 15:36 22.04230 40.22179 23905 ft 425 kts 232°
2026-04-21 15:36 22.02319 40.19748 23122 ft 425 kts 232°
2026-04-21 15:36 22.00408 40.17320 22344 ft 422 kts 232°
2026-04-21 15:37 21.98536 40.14942 21642 ft 419 kts 232°
2026-04-21 15:37 21.96655 40.12554 20939 ft 415 kts 232°
2026-04-21 15:37 21.94788 40.10185 20263 ft 412 kts 232°
2026-04-21 15:37 21.92928 40.07826 19584 ft 410 kts 232°
2026-04-21 15:38 21.91081 40.05484 18909 ft 408 kts 232°
2026-04-21 15:38 21.89249 40.03162 18240 ft 406 kts 231°
2026-04-21 15:38 21.87448 40.00880 17494 ft 403 kts 231°
2026-04-21 15:38 21.85636 39.98586 16816 ft 399 kts 231°
2026-04-21 15:39 21.83847 39.96323 16169 ft 394 kts 231°
2026-04-21 15:39 21.82083 39.94091 15521 ft 389 kts 231°
2026-04-21 15:39 21.80340 39.91888 14925 ft 383 kts 232°
2026-04-21 15:39 21.78624 39.89718 14316 ft 378 kts 231°
2026-04-21 15:40 21.76925 39.87571 13738 ft 373 kts 232°
2026-04-21 15:40 21.75252 39.85456 13158 ft 367 kts 231°
2026-04-21 15:40 21.73606 39.83378 12549 ft 362 kts 231°
2026-04-21 15:40 21.71981 39.81328 11948 ft 357 kts 231°
2026-04-21 15:41 21.70396 39.79328 11393 ft 353 kts 231°
2026-04-21 15:41 21.68810 39.77327 10991 ft 345 kts 231°
2026-04-21 15:41 21.67283 39.75404 10835 ft 330 kts 231°
2026-04-21 15:41 21.65822 39.73563 10681 ft 316 kts 231°
2026-04-21 15:42 21.64440 39.71823 10531 ft 303 kts 231°
2026-04-21 15:42 21.63101 39.70138 10385 ft 291 kts 231°
2026-04-21 15:42 21.61801 39.68500 10089 ft 285 kts 231°
2026-04-21 15:42 21.60519 39.66885 9775 ft 280 kts 231°
2026-04-21 15:43 21.59263 39.65303 9450 ft 276 kts 231°
2026-04-21 15:43 21.58137 39.63885 9181 ft 273 kts 231°
2026-04-21 15:43 21.56908 39.62338 8898 ft 271 kts 231°
2026-04-21 15:43 21.55685 39.60801 8664 ft 268 kts 230°
2026-04-21 15:44 21.54483 39.59289 8360 ft 264 kts 230°
2026-04-21 15:44 21.53293 39.57792 8109 ft 264 kts 229°
2026-04-21 15:44 21.52097 39.56287 7851 ft 265 kts 229°
2026-04-21 15:44 21.50895 39.54780 7550 ft 265 kts 228°
2026-04-21 15:45 21.49723 39.53307 7232 ft 262 kts 227°
2026-04-21 15:45 21.48538 39.51820 7055 ft 257 kts 227°
2026-04-21 15:45 21.47392 39.50380 6874 ft 254 kts 227°
2026-04-21 15:45 21.46238 39.48933 6594 ft 255 kts 227°
2026-04-21 15:46 21.45079 39.47480 6296 ft 257 kts 226°
2026-04-21 15:46 21.43916 39.46022 5978 ft 254 kts 226°
2026-04-21 15:46 21.42772 39.44587 5666 ft 252 kts 226°
2026-04-21 15:46 21.41639 39.43167 5375 ft 249 kts 225°
2026-04-21 15:47 21.40533 39.41778 5330 ft 239 kts 225°
2026-04-21 15:47 21.39459 39.40432 5393 ft 240 kts 225°
2026-04-21 15:47 21.38350 39.39047 5324 ft 252 kts 225°
2026-04-21 15:47 21.37192 39.37599 5136 ft 256 kts 225°
2026-04-21 15:48 21.36036 39.36151 4922 ft 254 kts 225°
2026-04-21 15:48 21.34894 39.34722 4708 ft 250 kts 225°
2026-04-21 15:48 21.34003 39.33140 4442 ft 253 kts 249°
2026-04-21 15:48 21.33917 39.31236 4237 ft 263 kts 277°
2026-04-21 15:49 21.34640 39.29478 4029 ft 271 kts 306°
2026-04-21 15:49 21.36099 39.28253 3811 ft 271 kts 334°
2026-04-21 15:49 21.37843 39.27543 3618 ft 263 kts 342°
2026-04-21 15:49 21.39549 39.26945 3376 ft 253 kts 341°
2026-04-21 15:50 21.41176 39.26339 3156 ft 239 kts 340°
2026-04-21 15:50 21.42665 39.25760 2911 ft 218 kts 340°
2026-04-21 15:50 21.44035 39.25220 2693 ft 201 kts 340°
2026-04-21 15:50 21.45305 39.24719 2497 ft 189 kts 339°
2026-04-21 15:51 21.46510 39.24243 2269 ft 182 kts 340°
2026-04-21 15:51 21.47645 39.23794 2207 ft 171 kts 340°
2026-04-21 15:51 21.48759 39.23357 2138 ft 166 kts 339°
2026-04-21 15:51 21.49850 39.22927 2122 ft 174 kts 339°
2026-04-21 15:52 21.50996 39.22471 2102 ft 174 kts 340°
2026-04-21 15:52 21.52126 39.22027 2095 ft 171 kts 339°
2026-04-21 15:52 21.52855 39.21737 2088 ft 165 kts 339°
2026-04-21 15:52 21.54268 39.21176 2086 ft 159 kts 340°
2026-04-21 15:53 21.55290 39.20773 2081 ft 154 kts 340°
2026-04-21 15:53 21.56298 39.20373 1997 ft 160 kts 340°
2026-04-21 15:53 21.57331 39.19966 1800 ft 154 kts 340°
2026-04-21 15:53 21.58293 39.19586 1608 ft 140 kts 340°
2026-04-21 15:54 21.59166 39.19241 1416 ft 131 kts 340°
2026-04-21 15:54 21.60013 39.18906 1263 ft 129 kts 339°
2026-04-21 15:54 21.60833 39.18581 1105 ft 128 kts 339°
2026-04-21 15:54 21.61700 39.18239 961 ft 135 kts 339°
2026-04-21 15:55 21.62591 39.17885 782 ft 138 kts 338°
2026-04-21 15:55 21.63489 39.17530 613 ft 136 kts 338°
2026-04-21 15:55 21.64369 39.17184 409 ft 133 kts 338°
2026-04-21 15:55 21.65222 39.16837 244 ft 125 kts 338°
2026-04-21 15:56 21.66014 39.16512 95 ft 122 kts 340°
2026-04-21 15:56 21.66792 39.16221 42 ft 106 kts 341°
2026-04-21 15:56 21.67342 39.16008 39 ft 61 kts 340°
2026-04-21 15:56 21.67567 39.15920 38 ft 50 kts 340°
2026-04-21 15:57 21.67861 39.15805 38 ft 39 kts 340°
2026-04-21 15:57 21.68114 39.15726 38 ft 21 kts 357°
2026-04-21 15:57 21.68248 39.15734 36 ft 19 kts
2026-04-21 15:57 21.68331 39.15764 35 ft 9 kts 44°
2026-04-21 15:58 21.68331 39.15806 36 ft 9 kts 123°
2026-04-21 15:58 21.68271 39.15836 36 ft 10 kts 158°
2026-04-21 15:58 21.68203 39.15865 37 ft 11 kts 159°
2026-04-21 15:58 21.68129 39.15895 37 ft 12 kts 159°
2026-04-21 15:59 21.68047 39.15929 37 ft 13 kts 159°
2026-04-21 15:59 21.67958 39.15964 38 ft 14 kts 160°
2026-04-21 15:59 21.67862 39.16001 38 ft 15 kts 160°
2026-04-21 15:59 21.67760 39.16041 38 ft 16 kts 160°
2026-04-21 16:00 21.67650 39.16085 38 ft 14 kts 154°
2026-04-21 16:00 21.67628 39.16176 39 ft 15 kts 66°
2026-04-21 16:00 21.67660 39.16278 39 ft 15 kts 72°
2026-04-21 16:00 21.67694 39.16383 40 ft 15 kts 68°
2026-04-21 16:01 21.67731 39.16485 42 ft 15 kts 69°
2026-04-21 16:01 21.67765 39.16588 44 ft 15 kts 70°
2026-04-21 16:01 21.67801 39.16691 46 ft 15 kts 69°
2026-04-21 16:01 21.67794 39.16791 48 ft 15 kts 141°
2026-04-21 16:02 21.67701 39.16834 48 ft 15 kts 157°
2026-04-21 16:02 21.67605 39.16872 49 ft 15 kts 159°
2026-04-21 16:02 21.67511 39.16914 49 ft 15 kts 157°
2026-04-21 16:02 21.67417 39.16958 50 ft 15 kts 156°
2026-04-21 16:03 21.67325 39.17005 50 ft 15 kts 158°
2026-04-21 16:03 21.67262 39.16978 49 ft 10 kts 232°
2026-04-21 16:03 21.67208 39.16945 49 ft 9 kts 163°
2026-04-21 16:03 21.67173 39.16963 49 ft 5 kts 153°
2026-04-21 16:04 21.67154 39.16973 49 ft 1 kts 153°
2026-04-21 16:04 21.67150 39.16975 49 ft 0 kts 154°